Location: Azul
(36.7830°S, 59.8500°W)
Time: 21:15:42
(UTC-03:00)

RS-44 - Pass Details

Date: 20 September 2024
Orbit: 1174 x 1511 km, 82.5° (Epoch: 11 October)

Event Time Altitude Azimuth Distance (km) Brightness Sun altitude
Rises 04:42:18 0° 201° (SSW) 4,458 ? -26.1°
Reaches altitude 10° 04:45:40 10° 213° (SSW) 3,527 ? -25.5°
Enters shadow 04:49:15 21° 236° (SW) 2,808 ? -24.8°
